Weather History for Valparaiso, IN

Change the Weather History Date:

Friday, November 23, 2012

  Actual Average Record
Temperature  
Mean Temperature 40 °F 37 °F  
Max Temperature 50 °F 44 °F 65 °F (2003)
Min Temperature 30 °F 30 °F 15 °F (2008)
Degree Days  
Heating Degree Days 25 28  
Month to date heating degree days 525 519  
Since 1 July heating degree days 1092 1049  
Cooling Degree Days 0 0  
Month to date cooling degree days 0 0  
Year to date cooling degree days 1054 713  
Moisture  
Dew Point 23 °F    
Average Humidity 64    
Maximum Humidity 82    
Minimum Humidity 54    
Precipitation  
Precipitation 0.00 in 0.10 in 0.78 in (2003)
Month to date precipitation 0.28 2.62  
Year to date precipitation 24.19 34.62  
Sea Level Pressure  
Sea Level Pressure 30.04 in    
Wind  
Wind Speed 21 mph (West)    
Max Wind Speed 33 mph    
Max Gust Speed 43 mph    
Visibility 10 miles    
Events      
T = Trace of Precipitation, MM = Missing Value Source: NWS Daily Summary

Daily Weather History Graph

Daily Weather History Graph

Search for Another Location

Airport:

Trip Planner

Search our weather history database for the weather conditions in past years. The results will help you decide how hot, cold, wet, or windy it might be!

Date:

Astronomy

Nov. 23, 2012 Rise Set
Actual Time 6:46 AM CST 4:22 PM CST
Civil Twilight 6:16 AM CST 4:52 PM CST
Nautical Twilight 5:42 AM CST 5:26 PM CST
Astronomical Twilight 5:09 AM CST 5:59 PM CST
Moon 1:39 PM CST (11/23) 2:02 AM CST (11/23)
Length of Visible Light 10h 36m
Length of Day
9h 35m
Waxing Gibbous, 80% of the Moon is Illuminated
Nov 23
Waxing Gibbous
Nov 28
Full
Dec 6
Last Quarter
Dec 13
New
Dec 19
First Quarter

Hourly Weather History & Observations

Time (CST) Temp. Windchill Dew Point Humidity Pressure Visibility Wind Dir Wind Speed Gust Speed Precip Events Conditions
12:06 AM 48.2 °F - 42.8 °F 82% 29.86 in 10.0 mi WSW 20.7 mph 27.6 mph N/A   Partly Cloudy
12:53 AM 44.1 °F 35.2 °F 36.0 °F 73% 29.89 in 10.0 mi West 23.0 mph 36.8 mph N/A   Clear
1:53 AM 41.0 °F 31.6 °F 34.0 °F 76% 29.92 in 10.0 mi West 20.7 mph 32.2 mph N/A   Clear
2:53 AM 37.9 °F 27.3 °F 30.9 °F 76% 29.93 in 10.0 mi West 21.9 mph 29.9 mph N/A   Clear
3:53 AM 37.0 °F 28.5 °F 30.0 °F 76% 29.93 in 10.0 mi West 13.8 mph - N/A   Clear
4:53 AM 36.0 °F 26.7 °F 30.0 °F 79% 29.92 in 10.0 mi West 15.0 mph - N/A   Clear
5:53 AM 37.0 °F 27.7 °F 30.0 °F 76% 29.93 in 10.0 mi West 16.1 mph 25.3 mph N/A   Partly Cloudy
6:18 AM 37.4 °F 26.6 °F 26.6 °F 65% 29.92 in 10.0 mi West 21.9 mph 34.5 mph N/A   Mostly Cloudy
6:53 AM 37.0 °F 25.1 °F 26.1 °F 65% 29.94 in 10.0 mi West 26.5 mph 34.5 mph N/A   Overcast
7:53 AM 36.0 °F 24.7 °F 23.0 °F 59% 29.95 in 10.0 mi West 21.9 mph 36.8 mph N/A   Overcast
8:53 AM 35.1 °F 25.2 °F 24.1 °F 64% 29.97 in 10.0 mi West 16.1 mph 26.5 mph N/A   Overcast
9:24 AM 33.8 °F 22.5 °F 21.2 °F 60% 29.98 in 10.0 mi West 19.6 mph 36.8 mph N/A   Overcast
9:48 AM 32.0 °F 17.6 °F 21.2 °F 64% 30.00 in 10.0 mi West 29.9 mph 38.0 mph N/A   Overcast
9:53 AM 30.9 °F 16.4 °F 19.9 °F 64% 30.02 in 10.0 mi WNW 28.8 mph 38.0 mph N/A   Overcast
10:17 AM 32.0 °F 18.6 °F 17.6 °F 55% 30.01 in 10.0 mi West 25.3 mph 33.4 mph N/A   Mostly Cloudy
10:53 AM 30.9 °F 17.8 °F 17.1 °F 57% 30.04 in 10.0 mi WNW 23.0 mph 34.5 mph N/A   Overcast
11:53 AM 30.9 °F 18.4 °F 17.1 °F 57% 30.05 in 10.0 mi WNW 20.7 mph 32.2 mph N/A   Overcast
12:53 PM 30.9 °F 18.1 °F 16.0 °F 54% 30.06 in 10.0 mi West 21.9 mph 32.2 mph N/A   Overcast
1:53 PM 32.0 °F 19.5 °F 17.1 °F 54% 30.09 in 10.0 mi WNW 21.9 mph 29.9 mph N/A   Overcast
2:53 PM 30.9 °F 19.4 °F 17.1 °F 57% 30.12 in 10.0 mi West 17.3 mph 27.6 mph N/A   Overcast
3:53 PM 30.0 °F 16.6 °F 17.1 °F 59% 30.14 in 10.0 mi WNW 23.0 mph 27.6 mph N/A   Overcast
4:53 PM 30.0 °F 17.9 °F 16.0 °F 56% 30.17 in 10.0 mi WNW 18.4 mph 27.6 mph N/A   Overcast
5:53 PM 30.0 °F 17.9 °F 16.0 °F 56% 30.18 in 10.0 mi WNW 18.4 mph 25.3 mph N/A   Overcast
6:53 PM 28.9 °F 17.7 °F 17.1 °F 61% 30.20 in 10.0 mi WNW 15.0 mph 21.9 mph N/A   Overcast
7:53 PM 30.0 °F 19.1 °F 17.1 °F 59% 30.20 in 10.0 mi WNW 15.0 mph - N/A   Overcast
8:53 PM 28.9 °F 19.2 °F 17.1 °F 61% 30.21 in 10.0 mi West 11.5 mph - N/A   Overcast
9:53 PM 28.9 °F 19.2 °F 18.0 °F 64% 30.20 in 10.0 mi WNW 11.5 mph - N/A   Overcast
10:28 PM 30.2 °F 21.9 °F 19.4 °F 64% 30.17 in 10.0 mi NW 9.2 mph - N/A   Overcast
10:53 PM 30.0 °F 21.7 °F 19.0 °F 64% 30.20 in 10.0 mi WNW 9.2 mph - N/A   Overcast